H1 CPF 2 NER 2025 8 26 9 238 01 glonass146 H2 2216101 9146 54377 2025 8 26 0 0 0 2025 8 29 23 45 0 900 1 1 0 0 0 1 H9 10 0 60913 0.00000 0 -15776256.974 -3621899.103 -19713897.681 10 0 60913 900.00000 0 -17449394.705 -5232224.647 -17859667.988 10 0 60913 1800.00000 0 -19050701.967 -6548138.465 -15658680.404 10 0 60913 2700.00000 0 -20516954.219 -7563360.489 -13153773.772 10 0 60913 3600.00000 0 -21786997.443 -8284348.892 -10393650.519 10 0 60913 4500.00000 0 -22804305.924 -8729754.946 -7431927.347 10 0 60913 5400.00000 0 -23519363.513 -8929369.514 -4326093.137 10 0 60913 6300.00000 0 -23891769.059 -8922607.294 -1136394.317 10 0 60913 7200.00000 0 -23891978.300 -8756594.089 2075330.629 10 0 60913 8100.00000 0 -23502609.783 -8483938.741 5246845.085 10 0 60913 9000.00000 0 -22719260.573 -8160284.269 8316713.769 10 0 60913 9900.00000 0 -21550797.934 -7841741.732 11225484.860 10 0 60913 10800.00000 0 -20019114.913 -7582314.921 13916832.473 10 0 60913 11700.00000 0 -18158359.892 -7431424.125 16338638.077 10 0 60913 12600.00000 0 -16013671.830 -7431632.915 18443990.730 10 0 60913 13500.00000 0 -13639473.156 -7616673.263 20192087.698 10 0 60913 14400.00000 0 -11097390.307 -8009851.898 21549018.921 10 0 60913 15300.00000 0 -8453887.107 -8622905.001 22488420.915 10 0 60913 16200.00000 0 -5777707.822 -9455349.836 22991988.048 10 0 60913 17100.00000 0 -3137234.486 -10494361.508 23049831.563 10 0 60913 18000.00000 0 -597866.720 -11715181.352 22660679.317 10 0 60913 18900.00000 0 1780468.563 -13082041.592 21831911.888 10 0 60913 19800.00000 0 3945575.230 -14549569.447 20579433.472 10 0 60913 20700.00000 0 5854920.704 -16064613.793 18927378.903 10 0 60913 21600.00000 0 7477163.423 -17568419.648 16907661.061 10 0 60913 22500.00000 0 8793211.487 -18999060.754 14559365.961 10 0 60913 23400.00000 0 9796768.183 -20294029.108 11928005.864 10 0 60913 24300.00000 0 10494341.363 -21392873.108 9064643.725 10 0 60913 25200.00000 0 10904716.139 -22239773.111 6024905.144 10 0 60913 26100.00000 0 11057913.004 -22785945.242 2867896.686 10 0 60913 27000.00000 0 10993675.535 -22991770.915 -344948.322 10 0 60913 27900.00000 0 10759552.013 -22828560.756 -3551073.468 10 0 60913 28800.00000 0 10408652.947 -22279876.821 -6688027.969 10 0 60913 29700.00000 0 9997180.594 -21342355.744 -9694695.242 10 0 60913 30600.00000 0 9581836.511 -20025996.667 -12512495.997 10 0 60913 31500.00000 0 9217218.512 -18353900.784 -15086541.001 10 0 60913 32400.00000 0 8953318.853 -16361472.779 -17366709.838 10 0 60913 33300.00000 0 8833230.939 -14095117.455 -19308633.715 10 0 60913 34200.00000 0 8891162.770 -11610486.369 -20874562.588 10 0 60913 35100.00000 0 9150841.906 -8970348.260 -22034099.536 10 0 60913 36000.00000 0 9624379.774 -6242172.767 -22764788.322 10 0 60913 36900.00000 0 10311643.345 -3495528.782 -23052543.161 10 0 60913 37800.00000 0 11200160.461 -799406.152 -22891913.150 10 0 60913 38700.00000 0 12265562.422 1780427.816 -22286177.067 10 0 60913 39600.00000 0 13472544.653 4183927.392 -21247267.629 10 0 60913 40500.00000 0 14776304.519 6359019.948 -19795527.576 10 0 60913 41400.00000 0 16124395.371 8263517.540 -17959303.105 10 0 60913 42300.00000 0 17458918.501 9866610.651 -15774383.185 10 0 60913 43200.00000 0 18718960.714 11149883.808 -13283296.199 10 0 60913 44100.00000 0 19843175.049 12107812.918 -10534477.906 10 0 60913 45000.00000 0 20772396.329 12747725.797 -7581327.187 10 0 60913 45900.00000 0 21452181.928 13089229.764 -4481168.050 10 0 60913 46800.00000 0 21835171.390 13163132.353 -1294138.110 10 0 60913 47700.00000 0 21883166.212 13009902.198 1917974.890 10 0 60913 48600.00000 0 21568842.928 12677736.152 5092926.092 10 0 60913 49500.00000 0 20877027.953 12220314.925 8169213.203 10 0 60913 50400.00000 0 19805481.000 11694342.204 11087259.967 10 0 60913 51300.00000 0 18365154.251 11156971.039 13790561.072 10 0 60913 52200.00000 0 16579916.227 10663225.588 16226767.043 10 0 60913 53100.00000 0 14485751.350 10263526.375 18348688.925 10 0 60913 54000.00000 0 12129467.720 10001422.623 20115204.212 10 0 60913 54900.00000 0 9566965.749 9911626.542 21492047.400 10 0 60913 55800.00000 0 6861138.240 10018431.915 22452470.635 10 0 60913 56700.00000 0 4079487.539 10334583.389 22977762.263 10 0 60913 57600.00000 0 1291556.911 10860644.357 23057613.544 10 0 60913 58500.00000 0 -1433718.937 11584890.802 22690326.361 10 0 60913 59400.00000 0 -4030635.847 12483736.765 21882857.444 10 0 60913 60300.00000 0 -6439207.224 13522675.133 20650697.403 10 0 60913 61200.00000 0 -8607413.720 14657695.993 19017585.749 10 0 60913 62100.00000 0 -10493122.689 15837124.665 17015066.026 10 0 60913 63000.00000 0 -12065597.725 17003803.739 14681888.199 10 0 60913 63900.00000 0 -13306535.268 18097528.479 12063268.475 10 0 60913 64800.00000 0 -14210584.706 19057633.722 9210019.732 10 0 60913 65700.00000 0 -14785329.932 19825623.375 6177568.577 10 0 60913 66600.00000 0 -15050732.887 20347731.056 3024877.745 10 0 60913 67500.00000 0 -15038062.532 20577302.776 -186705.093 10 0 60913 68400.00000 0 -14788354.684 20476899.581 -3394649.209 10 0 60913 69300.00000 0 -14350468.398 20020029.606 -6536468.946 10 0 60913 70200.00000 0 -13778822.020 19192434.635 -9550952.949 10 0 60913 71100.00000 0 -13130905.976 17992875.156 -12379369.141 10 0 60913 72000.00000 0 -12464678.980 16433379.387 -14966620.549 10 0 60913 72900.00000 0 -11835959.349 14538944.722 -17262328.249 10 0 60913 73800.00000 0 -11295923.169 12346703.448 -19221819.372 10 0 60913 74700.00000 0 -10888816.262 9904587.498 -20807000.332 10 0 60913 75600.00000 0 -10649977.427 7269548.203 -21987098.076 10 0 60913 76500.00000 0 -10604256.845 4505405.720 -22739255.113 10 0 60913 77400.00000 0 -10764896.379 1680418.284 -23048967.223 10 0 60913 78300.00000 0 -11132918.618 -1135327.150 -22910356.099 10 0 60913 79200.00000 0 -11697049.778 -3872594.175 -22326272.490 10 0 60913 80100.00000 0 -12434178.885 -6465634.847 -21308228.768 10 0 60913 81000.00000 0 -13310333.015 -8854677.144 -19876163.138 10 0 60913 81900.00000 0 -14282126.721 -10988159.553 -18058040.849 10 0 60913 82800.00000 0 -15298623.891 -12824621.133 -15889300.838 10 0 60913 83700.00000 0 -16303533.141 -14334170.076 -13412159.060 10 0 60913 84600.00000 0 -17237643.993 -15499471.532 -10674782.423 10 0 60913 85500.00000 0 -18041401.143 -16316215.529 -7730349.638 10 0 60914 0.00000 0 -18657508.481 -16793047.550 -4636017.670 10 0 60914 900.00000 0 -19033453.745 -16950966.941 -1451812.222 10 0 60914 1800.00000 0 -19123847.086 -16822219.609 1760532.043 10 0 60914 2700.00000 0 -18892476.632 -16448733.876 4938764.676 10 0 60914 3600.00000 0 -18313994.061 -15880165.659 8021319.066 10 0 60914 4500.00000 0 -17375159.952 -15171636.151 10948497.217 10 0 60914 5400.00000 0 -16075596.610 -14381257.410 13663617.041 10 0 60914 6300.00000 0 -14428016.546 -13567549.818 16114100.667 10 0 60914 7200.00000 0 -12457916.513 -12786859.574 18252483.481 10 0 60914 8100.00000 0 -10202748.944 -12090884.186 20037325.296 10 0 60914 9000.00000 0 -7710604.068 -11524409.200 21434006.937 10 0 60914 9900.00000 0 -5038456.071 -11123350.618 22415397.566 10 0 60914 10800.00000 0 -2250044.385 -10913184.735 22962380.497 10 0 60914 11700.00000 0 586523.783 -10907831.156 23064227.593 10 0 60914 12600.00000 0 3401352.096 -11109036.185 22718814.955 10 0 60914 13500.00000 0 6125409.700 -11506283.061 21932675.286 10 0 60914 14400.00000 0 8693153.203 -12077233.922 20720885.083 10 0 60914 15300.00000 0 11045008.323 -12788686.187 19106787.668 10 0 60914 16200.00000 0 13129608.856 -13598004.641 17121556.055 10 0 60914 17100.00000 0 14905700.160 -14454970.345 14803602.617 10 0 60914 18000.00000 0 16343627.780 -15303969.683 12197845.610 10 0 60914 18900.00000 0 17426348.774 -16086432.067 9354845.577 10 0 60914 19800.00000 0 18149923.007 -16743413.691 6329827.510 10 0 60914 20700.00000 0 18523463.381 -17218217.941 3181607.409 10 0 60914 21600.00000 0 18568546.852 -17458940.872 -28555.868 10 0 60914 22500.00000 0 18318111.043 -17420832.797 -3238160.559 10 0 60914 23400.00000 0 17814883.321 -17068374.461 -6384689.447 10 0 60914 24300.00000 0 17109409.390 -16376978.163 -9406839.647 10 0 60914 25200.00000 0 16257765.719 -15334240.089 -12245729.379 10 0 60914 26100.00000 0 15319053.801 -13940689.302 -14846056.804 10 0 60914 27000.00000 0 14352783.551 -12210000.365 -17157187.094 10 0 60914 27900.00000 0 13416257.758 -10168659.616 -19134145.604 10 0 60914 28800.00000 0 12562069.279 -7855098.457 -20738497.160 10 0 60914 29700.00000 0 11835817.414 -5318329.676 -21939094.141 10 0 60914 30600.00000 0 11274140.286 -2616143.849 -22712678.953 10 0 60914 31500.00000 0 10903146.111 187058.672 -23044329.657 10 0 60914 32400.00000 0 10737309.038 3022709.575 -22927740.814 10 0 60914 33300.00000 0 10778875.210 5820686.434 -22365334.982 10 0 60914 34200.00000 0 11017803.011 8511989.864 -21368203.611 10 0 60914 35100.00000 0 11432238.743 11031373.043 -19955879.403 10 0 60914 36000.00000 0 11989506.510 13319814.951 -18155945.321 10 0 60914 36900.00000 0 12647569.438 15326735.495 -16003488.565 10 0 60914 37800.00000 0 13356899.732 17011861.684 -13540410.616 10 0 60914 38700.00000 0 14062678.031 18346668.768 -10814607.134 10 0 60914 39600.00000 0 14707228.889 19315338.058 -7879033.953 10 0 60914 40500.00000 0 15232589.472 19915193.357 -4790677.442 10 0 60914 41400.00000 0 15583103.205 20156599.715 -1609449.306 10 0 60914 42300.00000 0 15707929.155 20062330.514 1602972.727 10 0 60914 43200.00000 0 15563361.713 19666431.034 4784335.960 10 0 60914 44100.00000 0 15114863.123 19012627.398 7873012.717 10 0 60914 45000.00000 0 14338723.562 18152348.582 10809186.343 10 0 60914 45900.00000 0 13223279.027 17142444.983 13536000.815 10 0 60914 46800.00000 0 11769635.691 16042699.398 16000652.411 10 0 60914 47700.00000 0 9991869.869 14913234.581 18155403.089 10 0 60914 48600.00000 0 7916694.318 13811925.571 19958496.888 10 0 60914 49500.00000 0 5582603.561 12791924.560 21374962.506 10 0 60914 50400.00000 0 3038532.273 11899401.250 22377287.324 10 0 60914 51300.00000 0 342080.712 11171592.692 22945950.428 10 0 60914 52200.00000 0 -2442621.107 10635243.769 23069804.668 10 0 60914 53100.00000 0 -5247323.826 10305503.482 22746300.290 10 0 60914 54000.00000 0 -8002245.698 10185323.446 21981545.413 10 0 60914 54900.00000 0 -10638730.475 10265384.301 20790201.350 10 0 60914 55800.00000 0 -13091867.243 10524554.004 19195213.660 10 0 60914 56700.00000 0 -15302964.294 10930859.735 17227382.774 10 0 60914 57600.00000 0 -17221774.661 11442933.711 14924781.015 10 0 60914 58500.00000 0 -18808380.562 12011872.978 12332025.905 10 0 60914 59400.00000 0 -20034657.851 12583435.579 9499422.647 10 0 60914 60300.00000 0 -20885258.662 13100480.693 6481991.514 10 0 60914 61200.00000 0 -21358070.420 13505549.526 3338398.624 10 0 60914 62100.00000 0 -21464131.442 13743477.104 129810.946 10 0 60914 63000.00000 0 -21227006.308 13763923.277 -3081301.721 10 0 60914 63900.00000 0 -20681647.322 13523714.245 -6232393.469 10 0 60914 64800.00000 0 -19872790.449 12988893.666 -9262072.596 10 0 60914 65700.00000 0 -18852954.168 12136394.650 -12111310.151 10 0 60914 66600.00000 0 -17680126.790 10955260.138 -14724601.731 10 0 60914 67500.00000 0 -16415241.116 9447358.461 -17051058.624 10 0 60914 68400.00000 0 -15119544.334 7627562.618 -19045406.103 10 0 60914 69300.00000 0 -13851975.248 5523384.715 -20668868.743 10 0 60914 70200.00000 0 -12666660.327 3174080.324 -21889925.305 10 0 60914 71100.00000 0 -11610634.539 629259.952 -22684918.662 10 0 60914 72000.00000 0 -10721882.981 -2052934.329 -23038509.335 10 0 60914 72900.00000 0 -10027785.251 -4808010.920 -22943964.571 10 0 60914 73800.00000 0 -9544027.091 -7567578.365 -22403278.191 10 0 60914 74700.00000 0 -9274023.857 -10261960.605 -21427119.843 10 0 60914 75600.00000 0 -9208878.522 -12822869.210 -20034615.506 10 0 60914 76500.00000 0 -9327874.428 -15186021.879 -18252964.359 10 0 60914 77400.00000 0 -9599480.433 -17293598.968 -16116900.107 10 0 60914 78300.00000 0 -9982824.726 -19096436.848 -13668007.795 10 0 60914 79200.00000 0 -10429573.994 -20555868.040 -10953909.739 10 0 60914 80100.00000 0 -10886137.807 -21645132.882 -8027336.701 10 0 60914 81000.00000 0 -11296104.637 -22350305.492 -4945102.505 10 0 60914 81900.00000 0 -11602806.413 -22670697.036 -1767002.049 10 0 60914 82800.00000 0 -11751903.312 -22618721.080 1445345.872 10 0 60914 83700.00000 0 -11693879.875 -22219228.198 4629688.595 10 0 60914 84600.00000 0 -11386347.368 -21508338.960 7724339.690 10 0 60914 85500.00000 0 -10796055.590 -20531825.189 10669366.176 10 0 60915 0.00000 0 -9900529.645 -19343108.022 13407740.191 10 0 60915 900.00000 0 -8689262.200 -18000956.194 15886434.948 10 0 60915 1800.00000 0 -7164412.103 -16566982.449 18057440.917 10 0 60915 2700.00000 0 -5340977.684 -15103040.281 19878688.396 10 0 60915 3600.00000 0 -3246437.487 -13668630.733 21314855.780 10 0 60915 4500.00000 0 -919871.485 -12318426.283 22338050.211 10 0 60915 5400.00000 0 1589402.386 -11100014.519 22928347.798 10 0 60915 6300.00000 0 4223621.748 -10051955.161 23074183.306 10 0 60915 7200.00000 0 6918730.928 -9202231.083 22772581.731 10 0 60915 8100.00000 0 9606802.542 -8567157.842 22029226.887 10 0 60915 9000.00000 0 12218630.881 -8150797.403 20858364.864 10 0 60915 9900.00000 0 14686390.954 -7944900.986 19282543.100 10 0 60915 10800.00000 0 16946253.828 -7929384.068 17332188.749 10 0 60915 11700.00000 0 18940850.109 -8073314.326 15045033.030 10 0 60915 12600.00000 0 20621479.033 -8336371.762 12465391.293 10 0 60915 13500.00000 0 21949970.702 -8670720.088 9643311.556 10 0 60915 14400.00000 0 22900122.974 -9023210.763 6633607.093 10 0 60915 15300.00000 0 23458651.972 -9337826.433 3494791.477 10 0 60915 16200.00000 0 23625615.544 -9558259.934 287936.762 10 0 60915 17100.00000 0 23414291.169 -9630518.611 -2924522.492 10 0 60915 18000.00000 0 22850513.047 -9505442.262 -6080015.097 10 0 60915 18900.00000 0 21971496.298 -9141026.294 -9117063.970 10 0 60915 19800.00000 0 20824198.194 -8504449.831 -11976496.325 10 0 60915 20700.00000 0 19463286.287 -7573721.040 -14602608.334 10 0 60915 21600.00000 0 17948800.118 -6338868.353 -16944260.303 10 0 60915 22500.00000 0 16343606.217 -4802625.758 -18955880.020 10 0 60915 23400.00000 0 14710754.764 -2980582.082 -20598354.078 10 0 60915 24300.00000 0 13110850.090 -900787.116 -21839789.547 10 0 60915 25200.00000 0 11599546.232 1397169.426 -22656131.311 10 0 60915 26100.00000 0 10225272.974 3863567.789 -23031623.498 10 0 60915 27000.00000 0 9027287.544 6440397.975 -22959106.757 10 0 60915 27900.00000 0 8034132.913 9063552.676 -22440146.458 10 0 60915 28800.00000 0 7262566.169 11665281.810 -21484990.275 10 0 60915 29700.00000 0 6717000.300 14176806.496 -20112356.862 10 0 60915 30600.00000 0 6389480.995 16530983.874 -18349060.563 10 0 60915 31500.00000 0 6260197.541 18664912.261 -16229480.113 10 0 60915 32400.00000 0 6298504.439 20522368.849 -13794882.231 10 0 60915 33300.00000 0 6464409.110 22055979.353 -11092613.595 10 0 60915 34200.00000 0 6710461.603 23229030.255 -8175177.242 10 0 60915 35100.00000 0 6983965.550 24016849.380 -5099211.465 10 0 60915 36000.00000 0 7229416.412 24407698.539 -1924391.116 10 0 60915 36900.00000 0 7391063.679 24403142.347 1287727.341 10 0 60915 37800.00000 0 7415488.783 24017879.173 4474894.747 10 0 60915 38700.00000 0 7254090.006 23279042.446 7575369.340 10 0 60915 39600.00000 0 6865369.728 22225002.511 10529105.100 10 0 60915 40500.00000 0 6216927.820 20903719.808 13278905.867 10 0 60915 41400.00000 0 5287077.256 19370718.505 15771523.606 10 0 60915 42300.00000 0 4066013.834 17686765.273 17958680.315 10 0 60915 43200.00000 0 2556490.347 15915349.751 19797994.731 10 0 60915 44100.00000 0 773966.028 14120071.206 21253796.786 10 0 60915 45000.00000 0 -1253776.353 12362039.599 22297814.861 10 0 60915 45900.00000 0 -3487531.467 10697398.461 22909723.182 10 0 60915 46800.00000 0 -5878054.981 9175071.928 23077539.092 10 0 60915 47700.00000 0 -8367874.248 7834829.094 22797862.548 10 0 60915 48600.00000 0 -10893453.079 6705745.838 22075952.761 10 0 60915 49500.00000 0 -13387622.661 5805128.030 20925639.773 10 0 60915 50400.00000 0 -15782179.336 5137941.097 19369071.531 10 0 60915 51300.00000 0 -18010542.552 4696770.102 17436300.022 10 0 60915 52200.00000 0 -20010363.178 4462312.402 15164712.985 10 0 60915 53100.00000 0 -21725973.736 4404382.749 12598320.822 10 0 60915 54000.00000 0 -23110578.059 4483388.970 9786911.275 10 0 60915 54900.00000 0 -24128088.164 4652216.304 6785087.341 10 0 60915 55800.00000 0 -24754530.430 4858440.769 3651206.666 10 0 60915 56700.00000 0 -24978961.039 5046777.526 446243.010 10 0 60915 57600.00000 0 -24803851.181 5161659.730 -2767407.611 10 0 60915 58500.00000 0 -24244925.020 5149837.328 -5927151.926 10 0 60915 59400.00000 0 -23330456.772 4962884.075 -8971430.507 10 0 60915 60300.00000 0 -22100056.437 4559504.713 -11840929.576 10 0 60915 61200.00000 0 -20602995.718 3907542.699 -14479748.495 10 0 60915 62100.00000 0 -18896145.347 2985601.726 -16836498.886 10 0 60915 63000.00000 0 -17041611.585 1784210.858 -18865312.994 10 0 60915 63900.00000 0 -15104172.383 306482.790 -20526740.932 10 0 60915 64800.00000 0 -13148621.906 -1431763.525 -21788519.098 10 0 60915 65700.00000 0 -11237135.589 -3402421.729 -22626194.895 10 0 60915 66600.00000 0 -9426766.632 -5566041.194 -23023596.062 10 0 60915 67500.00000 0 -7767178.676 -7873255.089 -22973136.160 10 0 60915 68400.00000 0 -6298708.997 -10266633.678 -22475951.186 10 0 60915 69300.00000 0 -5050842.197 -12682885.361 -21541865.522 10 0 60915 70200.00000 0 -4041156.700 -15055313.590 -20189188.855 10 0 60915 71100.00000 0 -3274786.312 -17316427.298 -18444348.782 10 0 60915 72000.00000 0 -2744417.280 -19400596.224 -16341366.955 10 0 60915 72900.00000 0 -2430818.880 -21246640.857 -13921189.521 10 0 60915 73800.00000 0 -2303883.123 -22800249.646 -11230885.209 10 0 60915 74700.00000 0 -2324128.064 -24016123.417 -8322727.005 10 0 60915 75600.00000 0 -2444599.851 -24859758.479 -5253175.385 10 0 60915 76500.00000 0 -2613092.195 -25308795.022 -2081782.939 10 0 60915 77400.00000 0 -2774588.855 -25353875.591 1129958.349 10 0 60915 78300.00000 0 -2873825.633 -24998978.866 4319804.900 10 0 60915 79200.00000 0 -2857863.623 -24261215.794 7425961.649 10 0 60915 80100.00000 0 -2678565.204 -23170097.412 10388271.517 10 0 60915 81000.00000 0 -2294868.526 -21766305.555 13149371.762 10 0 60915 81900.00000 0 -1674764.801 -20100018.041 15655795.478 10 0 60915 82800.00000 0 -796895.173 -18228858.235 17858997.737 10 0 60915 83700.00000 0 348300.238 -16215554.125 19716287.383 10 0 60915 84600.00000 0 1757929.983 -14125403.780 21191647.381 10 0 60915 85500.00000 0 3416523.997 -12023651.893 22256428.651 10 0 60916 0.00000 0 5296438.026 -9972885.734 22889904.555 10 0 60916 900.00000 0 7358775.749 -8030556.686 23079675.954 10 0 60916 1800.00000 0 9554789.703 -6246732.261 22821918.244 10 0 60916 2700.00000 0 11827708.171 -4662167.650 22121466.356 10 0 60916 3600.00000 0 14114911.706 -3306779.319 20991734.353 10 0 60916 4500.00000 0 16350371.534 -2198582.858 19454470.512 10 0 60916 5400.00000 0 18467249.717 -1343139.620 17539351.204 10 0 60916 6300.00000 0 20400553.747 -733535.406 15283419.955 10 0 60916 7200.00000 0 22089735.310 -350892.443 12730381.157 10 0 60916 8100.00000 0 23481124.569 -165393.421 9929760.856 10 0 60916 9000.00000 0 24530097.533 -137774.680 6935949.966 10 0 60916 9900.00000 0 25202884.667 -221225.532 3807148.008 10 0 60916 10800.00000 0 25477943.651 -363613.099 604227.883 10 0 60916 11700.00000 0 25346837.267 -509937.771 -2610455.808 10 0 60916 12600.00000 0 24814578.360 -604914.187 -5774290.804 10 0 60916 13500.00000 0 23899426.421 -595566.856 -8825638.520 10 0 60916 14400.00000 0 22632143.834 -433728.735 -11705047.379 10 0 60916 15300.00000 0 21054743.043 -78335.045 -14356423.003 10 0 60916 16200.00000 0 19218777.630 502586.589 -16728131.234 10 0 60916 17100.00000 0 17183249.851 1330315.513 -18774011.447 10 0 60916 18000.00000 0 15012223.379 2414295.957 -20454279.705 10 0 60916 18900.00000 0 12772242.329 3751502.746 -21736303.892 10 0 60916 19800.00000 0 10529665.500 5326342.282 -22595235.812 10 0 60916 20700.00000 0 8348027.966 7111093.399 -23014488.372 10 0 60916 21600.00000 0 6285540.433 9066869.780 -22986049.268 10 0 60916 22500.00000 0 4392830.488 11145063.604 -22510625.930 10 0 60916 23400.00000 0 2711019.209 13289209.888 -21597619.832 10 0 60916 24300.00000 0 1270212.089 15437193.454 -20264931.606 10 0 60916 25200.00000 0 88465.539 17523706.260 -18538601.528 10 0 60916 26100.00000 0 -828729.926 19482852.474 -16452293.117 10 0 60916 27000.00000 0 -1488430.446 21250792.727 -14046630.413 10 0 60916 27900.00000 0 -1909686.622 22768317.472 -11368402.218 10 0 60916 28800.00000 0 -2122483.717 23983242.481 -8469649.073 10 0 60916 29700.00000 0 -2166220.705 24852527.037 -5406650.888 10 0 60916 30600.00000 0 -2087793.781 25344027.118 -2238834.943 10 0 60916 31500.00000 0 -1939366.241 25437811.064 972374.519 10 0 60916 32400.00000 0 -1775919.560 25126983.600 4164742.885 10 0 60916 33300.00000 0 -1652689.379 24417984.534 7276425.206 10 0 60916 34200.00000 0 -1622594.663 23330350.287 10247156.713 10 0 60916 35100.00000 0 -1733768.350 21895948.659 13019411.315 10 0 60916 36000.00000 0 -2027293.372 20157718.945 15539506.297 10 0 60916 36900.00000 0 -2535239.214 18167969.848 17758632.622 10 0 60916 37800.00000 0 -3279081.643 15986305.684 19633791.806 10 0 60916 38700.00000 0 -4268572.282 13677266.464 21128622.126 10 0 60916 39600.00000 0 -5501106.136 11307779.083 22214098.987 10 0 60916 40500.00000 0 -6961614.688 8944524.415 22869096.552 10 0 60916 41400.00000 0 -8622990.546 6651328.465 23080800.155 10 0 60916 42300.00000 0 -10447027.765 4486684.833 22844961.512 10 0 60916 43200.00000 0 -12385840.638 2501510.349 22165991.487 10 0 60916 44100.00000 0 -14383703.938 737226.379 21056887.827 10 0 60916 45000.00000 0 -16379239.841 -775754.883 19538998.221 10 0 60916 45900.00000 0 -18307862.006 -2019076.339 17641621.924 10 0 60916 46800.00000 0 -20104376.103 -2986970.519 15401456.196 10 0 60916 47700.00000 0 -21705628.816 -3686260.182 12861896.861 10 0 60916 48600.00000 0 -23053094.681 -4135824.801 10072205.300 10 0 60916 49500.00000 0 -24095291.963 -4365555.175 7086557.046 10 0 60916 50400.00000 0 -24789925.291 -4414840.243 3962989.991 10 0 60916 51300.00000 0 -25105663.791 -4330650.203 762272.562 10 0 60916 52200.00000 0 -25023478.483 -4165297.634 -2453285.711 10 0 60916 53100.00000 0 -24537481.174 -3973972.319 -5621057.165 10 0 60916 54000.00000 0 -23655228.249 -3812155.540 -8679327.562 10 0 60916 54900.00000 0 -22397475.567 -3733024.993 -11568510.848 10 0 60916 55800.00000 0 -20797394.238 -3784962.003 -14232322.019 10 0 60916 56700.00000 0 -18899280.114 -4009268.379 -16618883.932 10 0 60916 57600.00000 0 -16756811.495 -4438191.158 -18681745.500 10 0 60916 58500.00000 0 -14430928.778 -5093340.153 -20380790.659 10 0 60916 59400.00000 0 -11987425.650 -5984566.189 -21683020.135 10 0 60916 60300.00000 0 -9494353.371 -7109348.126 -22563190.872 10 0 60916 61200.00000 0 -7019347.290 -8452714.844 -23004301.054 10 0 60916 62100.00000 0 -4626987.437 -9987705.661 -22997912.005 10 0 60916 63000.00000 0 -2376303.204 -11676349.744 -22544301.539 10 0 60916 63900.00000 0 -318525.506 -13471123.249 -21652446.695 10 0 60916 64800.00000 0 1504820.945 -15316822.857 -20339837.128 10 0 60916 65700.00000 0 3063407.331 -17152777.055 -18632123.579 10 0 60916 66600.00000 0 4339112.101 -18915302.446 -16562608.992 10 0 60916 67500.00000 0 5326514.059 -20540302.291 -14171592.714 10 0 60916 68400.00000 0 6032848.864 -21965898.718 -11505580.948 10 0 60916 69300.00000 0 6477433.091 -23134988.693 -8616379.102 10 0 60916 70200.00000 0 6690582.207 -23997617.248 -5560083.855 10 0 60916 71100.00000 0 6712069.815 -24513069.142 -2395994.578 10 0 60916 72000.00000 0 6589194.514 -24651592.010 814534.713 10 0 60916 72900.00000 0 6374536.944 -24395679.490 4009280.734 10 0 60916 73800.00000 0 6123502.209 -23740861.204 7126350.864 10 0 60916 74700.00000 0 5891751.639 -22695967.017 10105374.704 10 0 60916 75600.00000 0 5732632.178 -21282854.792 12888664.700 10 0 60916 76500.00000 0 5694711.516 -19535613.045 15422324.026 10 0 60916 77400.00000 0 5819522.518 -17499271.543 17657281.048 10 0 60916 78300.00000 0 6139611.649 -15228073.002 19550231.239 10 0 60916 79200.00000 0 6676973.374 -12783376.981 21064469.241 10 0 60916 80100.00000 0 7441936.577 -10231282.036 22170595.753 10 0 60916 81000.00000 0 8432550.330 -7640063.638 22847086.275 10 0 60916 81900.00000 0 9634495.851 -5077532.797 23080711.052 10 0 60916 82800.00000 0 11021529.784 -2608423.683 22866798.156 10 0 60916 83700.00000 0 12556442.063 -291917.398 22209334.291 10 0 60916 84600.00000 0 14192490.264 1820596.340 21120900.610 10 0 60916 85500.00000 0 15875252.479 3687427.317 19622443.764 99